Welcome to the New NWS' Forecast!
Most changes are behind the scenes, but click here for differences you might notice.
Latest weather observations around

Batavia Clermont County Airport (KI69)

Using English Units (Switch to International System of Units)
Date/ Time (EDT) Wind (mph) Vis. (mi) Weather Sky Cond. Temp (°F) Rel. Humidity Wind Chill (°F) Heat Index (°F) Pressure Precip. (in)
Air Dwpt 6 hour Altimeter (inHg) Sea level (inHg) 1 hr 3 hr 6 hr
Max Min
Sep 19 10:37 SE 5 10 Partly Cloudy SCT080 77 71     81%   78 30.02        
Sep 19 10:16 Calm 10 Clear CLR 74 70     87%   75 30.02        
Sep 19 09:56 SSE 3 10 Partly Cloudy SCT110 72 69     92%   73 30.01        
Sep 19 09:37 Calm 10 Mostly Cloudy BKN110 71 69     93%   72 30.01        
Sep 19 09:16 Calm 10 Cloudy OVC110 70 69     96%     30.01        
Sep 19 08:57 Calm 10 Cloudy OVC120 69 68     98%     30.02        
Sep 19 08:36 Calm 10 Mostly Cloudy BKN120 68 67     98%     30.02        
Sep 19 08:16 Calm 10 Partly Cloudy SCT110 69 67     94%     30.01        
Sep 19 07:57 Calm 10 Clear CLR 67 66     96%     30.01        
Sep 19 07:36 Calm 7 Clear CLR 66 66     98%     30        
Sep 19 07:16 Calm 10 Clear CLR 68 66     93%     30        
Sep 19 06:57 Calm 10 Clear CLR 67 66     97%     29.99        
Sep 19 06:36 Calm 10 Clear CLR 66 66     98%     29.98        
Sep 19 06:17 Calm 10 Clear CLR 66 66     98%     29.98        
Sep 19 05:57 Calm 10 Clear CLR 67 66     99%     29.97        
Sep 19 05:36 Calm 10 Clear CLR 67 67     98%     29.96        
Sep 19 05:17 Calm 10 Clear CLR 68 66     95%     29.96        
Sep 19 04:57 Calm 10 Clear CLR 68 67     95%     29.95        
Sep 19 04:36 Calm 10 Clear CLR 67 66     96%     29.94        
Sep 19 04:17 SW 3 10 Clear CLR 68 67     95%     29.95        
Sep 19 03:57 Calm 10 Clear CLR 68 67     98%     29.94        
Sep 19 03:36 Calm 10 Clear CLR 68 67     96%     29.95        
Sep 19 03:17 Calm 10 Clear CLR 68 67     97%     29.94        
Sep 19 02:57 Calm 10 Clear CLR 69 67     94%     29.94        
Sep 19 02:36 Calm 10 Clear CLR 71 68     90%   72 29.94        
Sep 19 02:17 Calm 10 Clear CLR 71 68     91%   72 29.94        
Sep 19 01:57 Calm 10 Clear CLR 71 68     91%   72 29.94        
Sep 19 01:36 SW 3 10 Clear CLR 71 68     91%   72 29.94        
Sep 19 01:17 Calm 10 Clear CLR 70 68     95%     29.94        
Sep 19 00:56 Calm 10 Clear CLR 71 68     91%   72 29.94        
Sep 19 00:36 Calm 10 Clear CLR 71 69     94%   72 29.94        
Sep 19 00:17 Calm 10 Clear CLR 72 69     92%   73 29.95        
Sep 18 23:56 Calm 10 Clear CLR 72 70     94%   73 29.95        
Sep 18 23:36 Calm 10 Clear CLR 71 70     95%   73 29.94        
Sep 18 23:16 Calm 10 Clear CLR 72 70     95%   73 29.94        
Sep 18 22:57 Calm 10 Clear CLR 73 70     90%   75 29.94        
Sep 18 22:36 Calm 10 Clear CLR 72 71     96%   73 29.94        
Sep 18 22:16 Calm 10 Clear CLR 73 71     94%   74 29.94        
Sep 18 21:57 Calm 10 Clear CLR 73 71     91%   75 29.94        
Sep 18 21:36 Calm 10 Clear CLR 73 72     94%   75 29.94        
Sep 18 21:16 Calm 10 Clear CLR 74 72     92%   76 29.93        
Sep 18 20:57 Calm 10 Clear CLR 74 71     90%   76 29.93        
Sep 18 20:36 Calm 10 Partly Cloudy SCT090 75 70     84%   77 29.92        
Sep 18 20:16 Calm 10 Partly Cloudy SCT080 SCT110 75 71     87%   77 29.92        
Sep 18 19:57 SW 3 10 Cloudy BKN090 OVC110 77 72     85%   78 29.92        
Sep 18 19:36 Calm 10 Cloudy OVC090 78 71     80%   79 29.92        
Sep 18 19:17 WSW 3 10 Cloudy OVC090 78 73     85%   79 29.92        
Sep 18 18:57 Calm 10 Light Rain OVC080 78 69     73%   79 29.92        
Sep 18 18:36 WNW 7 10 Cloudy SCT055 SCT065 OVC090 84 71     64%   89 29.92        
Sep 18 18:17 Calm 10 Cloudy SCT050 OVC100 84 72     66%   90 29.92        
Sep 18 17:56 W 3 10 Mostly Cloudy SCT050 SCT055 BKN100 87 69     55%   91 29.92        
Sep 18 17:37 SSW 3 10 Partly Cloudy SCT100 87 69     55%   91 29.92        
Sep 18 17:16 WSW 3 10 Clear CLR 88 69     54%   92 29.92        
Sep 18 16:57 SW 5 10 Partly Cloudy SCT044 SCT080 88 69     53%   93 29.92        
Sep 18 16:36 SW 5 10 Mostly Cloudy SCT044 SCT050 BKN065 87 69     55%   91 29.93        
Sep 18 16:17 WSW 8 10 Mostly Cloudy BKN044 BKN085 89 70     54%   94 29.93        
Sep 18 15:57 Calm 10 Partly Cloudy SCT044 SCT085 87 69     56%   91 29.93        
Sep 18 15:36 WSW 6 10 Clear CLR 87 70     57%   92 29.93        
Sep 18 15:17 W 3 10 Clear CLR 88 69     53%   92 29.94        
Sep 18 14:56 WSW 7 10 Clear CLR 88 65     47%   90 29.94        
Sep 18 14:37 S 5 10 Partly Cloudy SCT041 87 68     53%   91 29.96        
Sep 18 14:16 Calm 10 Partly Cloudy SCT060 87 67     52%   90 29.96        
Sep 18 13:56 Calm 10 Partly Cloudy SCT060 87 65     48%   89 29.96        
Sep 18 13:37 Calm 10 Partly Cloudy SCT070 87 67     52%   89 29.97        
Sep 18 13:16 NW 3 10 Partly Cloudy SCT070 86 67     52%   89 29.98        
Sep 18 12:36 Calm 10 Partly Cloudy SCT070 86 70     59%   90 29.98        
Sep 18 12:17 Calm 10 Partly Cloudy SCT070 83 69     64%   87 29.99        
Sep 18 11:56 Calm 10 Clear CLR 82 71     68%   87 29.99        
Sep 18 11:37 Calm 10 Partly Cloudy SCT080 SCT100 81 71     72%   85 29.99        
Sep 18 11:17 Calm 10 Partly Cloudy SCT070 SCT090 79 71     76%   82 30        
Sep 18 10:56 Calm 10 Mostly Cloudy BKN070 BKN080 78 72     81%   79 30        
Sep 18 10:37 Calm 10 Mostly Cloudy BKN070 BKN090 76 71     83%   77 30        
Sep 18 10:16 Calm 10 Partly Cloudy SCT080 75 71     87%   77 30        
Sep 18 09:57 Calm 10 Mostly Cloudy BKN070 BKN080 74 71     90%   75 30        
Sep 18 09:36 Calm 10 Partly Cloudy SCT070 74 71     91%   75 29.99        
Sep 18 09:17 Calm 10 Clear CLR 73 71     92%   75 29.99        
Sep 18 08:57 Calm 10 Partly Cloudy SCT070 72 70     95%   73 29.99        
Sep 18 08:36 Calm 10 Clear CLR 69 68     96%     29.99        
Sep 18 08:17 Calm 10 Clear CLR 69 69     99%     29.99        
Sep 18 07:56 Calm 7 Clear CLR 67 67     99%     29.98        
Sep 18 07:36 Calm 10 Clear CLR 67 67     100%     29.98        
Sep 18 07:17 Calm 10 Partly Cloudy SCT002 65 65     99%     29.97        
Sep 18 06:56 Calm 0.75 Fog/Mist BKN002 66 66     100%     29.97        
Sep 18 06:36 Calm 10 Clear CLR 67 67     100%     29.96        
Sep 18 06:17 Calm 10 Clear CLR 67 67     99%     29.96        
Sep 18 05:56 Calm 10 Clear CLR 67 67     100%     29.96        
Sep 18 05:36 Calm 10 Clear CLR 67 66     99%     29.96        
Sep 18 05:17 Calm 1.25 Fog/Mist VV007 67 67     100%     29.96        
Sep 18 04:56 Calm 10 Clear CLR 68 67     99%     29.96        
Sep 18 04:36 Calm 10 Clear CLR 69 68     98%     29.96        
Sep 18 04:17 Calm 1.5 Fog/Mist VV007 68 68     100%     29.96        
Sep 18 03:56 Calm 10 Clear CLR 68 67     98%     29.96        
Sep 18 03:36 Calm 10 Clear CLR 69 68     99%     29.96        
Sep 18 03:17 Calm 10 Clear CLR 69 68     97%     29.96        
Sep 18 02:56 Calm 10 Clear CLR 70 68     96%     29.96        
Sep 18 02:36 Calm 10 Clear CLR 69 68     97%     29.96        
Sep 18 02:17 Calm 10 Clear CLR 69 69     97%     29.96        
Sep 18 01:56 Calm 10 Clear CLR 70 69     96%     29.96        
Sep 18 01:37 Calm 10 Clear CLR 71 69     94%   72 29.96        
Sep 18 01:17 Calm 10 Clear CLR 71 70     95%   72 29.96        
Sep 18 00:56 Calm 10 Clear CLR 71 70     97%   72 29.96        
Sep 18 00:37 Calm 10 Clear CLR 71 70     98%   72 29.96        
Sep 18 00:17 Calm 10 Clear CLR 72 70     96%   73 29.95        
Sep 17 23:56 Calm 10 Clear CLR 71 71     97%   73 29.96        
Sep 17 23:36 Calm 10 Mostly Cloudy BKN080 71 71     98%   73          
Sep 17 23:17 Calm 10 Mostly Cloudy BKN080 72 71     96%   73 29.94        
Sep 17 22:57 Calm 10 Mostly Cloudy SCT090 BKN120 73 71     93%   75 29.94        
Sep 17 22:36 Calm 10 Partly Cloudy SCT120 73 71     94%   74 29.94        
Sep 17 22:17 Calm 10 Partly Cloudy SCT095 73 71     93%   74 29.93        
Sep 17 21:57 Calm 10 Mostly Cloudy SCT048 SCT055 BKN095 74 71     92%   75 29.93        
Sep 17 21:36 Calm 10 Cloudy OVC048 74 72     91%   76 29.92        
Sep 17 21:17 Calm 10 Mostly Cloudy BKN050 BKN060 74 71     90%   76 29.92        
Sep 17 20:56 Calm 10 Mostly Cloudy SCT050 BKN060 74 71     91%   76 29.91        
Sep 17 20:36 WSW 3 10 Partly Cloudy SCT048 SCT060 75 72     90%   76          
Sep 17 20:17 W 3 10 Clear CLR 75 72     89%   77 29.9        
Sep 17 19:56 W 6 10 Partly Cloudy SCT110 76 72     87%   77 29.9        
Sep 17 19:36 W 6 10 Mostly Cloudy BKN100 76 72     85%   78 29.9        
Sep 17 19:17 W 7 10 Cloudy OVC110 77 71     83%   78 29.89        
Sep 17 18:56 W 7 10 Partly Cloudy SCT120 78 71     81%   79 29.89        
Sep 17 18:36 NW 6 10 Clear CLR 80 71     75%   83 29.88        
Sep 17 18:17 WNW 5 10 Partly Cloudy SCT110 80 71     75%   83 29.88        
Sep 17 17:56 NW 8 10 Mostly Cloudy BKN110 79 72     78%   82 29.88        
Sep 17 17:37 WNW 10 10 Partly Cloudy SCT100 80 71     75%   83 29.88        
Sep 17 17:17 WNW 9 10 Partly Cloudy SCT024 SCT032 SCT050 80 71     75%   84 29.88        
Sep 17 16:56 W 9 10 Mostly Cloudy SCT024 BKN050 80 71     74%   84 29.88        
Sep 17 16:37 WNW 7 10 Cloudy OVC050 78 71     79%   79 29.88        
Sep 17 16:17 NW 8 10 Mostly Cloudy SCT050 BKN100 77 71     80%   79 29.89        
Sep 17 15:56 NNW 5 10 Mostly Cloudy SCT023 SCT029 BKN100 77 70     79%   78 29.89        
Sep 17 15:37 NNW 7 10 Mostly Cloudy SCT023 SCT044 BKN050 77 70     79%   78 29.89        
Sep 17 15:16 NNW 6 10 Cloudy OVC050 76 71     83%   78 29.89        
Sep 17 14:57 NNW 7 10 Cloudy SCT012 SCT041 OVC050 76 71     86%   77 29.9        
Sep 17 14:37 NW 3 10 Cloudy SCT010 BKN028 OVC050 75 71     88%   77 29.9        
Sep 17 14:16 NW 7 10 Cloudy SCT010 BKN028 OVC035 75 71     89%   76 29.91        
Sep 17 13:57 NW 7 10 Cloudy SCT010 BKN019 OVC032 74 71     89%   75 29.91        
Sep 17 13:36 NW 7 10 Cloudy SCT012 BKN032 OVC055 74 71     90%   76 29.92        
Sep 17 13:16 NW 7 10 Cloudy SCT008 BKN035 OVC055 74 71     91%   75 29.92        
Sep 17 12:57 NW 8 10 Cloudy SCT008 BKN014 OVC033 73 71     93%   74 29.92        
Sep 17 12:36 NNW 7 10 Cloudy OVC012 74 71     91%   75 29.92        
Sep 17 12:17 N 8 10 Cloudy OVC012 74 70     88%   75 29.92        
Sep 17 11:57 N 5 10 Cloudy OVC012 73 70     90%   74 29.92        
Sep 17 11:36 N 6 10 Cloudy OVC010 72 69     91%   73 29.92        
Sep 17 11:17 N 6 10 Cloudy OVC010 72 69     92%   73 29.92        
Sep 17 10:56 N 5 10 Cloudy BKN010 BKN015 OVC046 71 69     94%   72 29.92        
Sep 17 10:36 N 5 10 Cloudy SCT013 OVC046 70 69     95%     29.92        
Sep 17 10:17 N 6 10 Cloudy OVC048 70 68     96%     29.92        
Sep 17 09:56 N 5 10 Light Rain OVC050 69 68     96%     29.92        
Sep 17 09:37 N 6 10 Light Rain OVC050 69 68     96%     29.92        
Sep 17 09:17 N 6 10 Light Rain BKN025 OVC050 69 68     97%     29.92        
Sep 17 08:56 NNE 8 10 Light Drizzle OVC027 69 68     96%     29.92        
Sep 17 08:37 N 7 10 Light Drizzle BKN027 BKN044 OVC060 69 68     97%     29.92        
Sep 17 08:16 N 6 10 Rain BKN029 BKN044 OVC060 69 68     96%     29.92        
Sep 17 07:57 NNE 7 10 Light Drizzle SCT029 BKN060 OVC085 69 68     96%     29.92   0    
Sep 17 07:37 NNE 6 10 Rain SCT060 BKN085 BKN120 69 68     96%     29.92   0    
Sep 17 07:16 NNE 8 10 Light Rain SCT031 OVC050 69 68     97%     29.92   0    
Sep 17 06:57 NE 5 10 Light Rain SCT050 BKN065 BKN075 69 68     97%     29.92   0    
Sep 17 06:36 NE 5 10 Rain SCT080 SCT110 69 68     96%         0    
Sep 17 06:16 NNE 7 10 Clear   69 68     96%     29.91        
Sep 17 05:57 NNE 6 10 Clear   69 68     95%     29.92        
Sep 17 05:36 NNE 5 10 Light Rain CLR 70 68     95%     29.92   0    
Sep 17 05:17 NE 3 10 Light Rain CLR 70 68     93%     29.92        
Sep 17 04:56 NE 7 10 Light Rain CLR 70 68     93%   71 29.92   0 0  
Sep 17 04:37 NNE 5 10 Light Rain SCT090 SCT110 71 68     90%   72 29.93        
Sep 17 04:17 NE 6 10 Light Rain BKN090 BKN110 72 68     88%   73 29.93        
Sep 17 03:56 Calm 10 Light Rain SCT075 BKN110 72 68     87%   73 29.94        
Sep 17 03:37 NE 6 10 Light Drizzle BKN080 BKN090 72 68     86%   73 29.94        
Sep 17 03:16 NE 6 10 Light Drizzle BKN070 BKN100 73 68     85%   74 29.94        
Sep 17 02:56 NE 3 10 Cloudy OVC065 73 68     85%   74 29.96        
Sep 17 02:37 Calm 10 Cloudy BKN065 OVC080 73 68     86%   74 29.96        
Sep 17 02:16 NE 3 10 Cloudy BKN065 OVC080 72 69     87%   74 29.96        
Sep 17 01:57 NE 5 10 Cloudy SCT065 OVC080 73 69     86%   74 29.97        
Sep 17 01:37 NNE 3 10 Cloudy OVC080 73 69     85%   74 29.97        
Sep 17 01:16 NNE 5 10 Light Drizzle OVC080 73 69     85%   74 29.98        
Sep 17 00:57 NE 3 10 Light Rain SCT080 BKN090 OVC110 73 69     85%   74 29.99        
Sep 17 00:37 ENE 3 10 Light Drizzle OVC110 74 69     84%   75 30        
Sep 17 00:16 ENE 3 10 Cloudy OVC100 74 68     82%   75 30.01        
Sep 16 23:56 ENE 3 10 Cloudy OVC100 74 69     82%   75 30.01        
Sep 16 23:37 E 3 10 Cloudy OVC100 74 69     83%   75 30.01        
Sep 16 23:16 Calm 10 Mostly Cloudy BKN100 74 69     83%   75 30.01        
Sep 16 22:57 Calm 10 Partly Cloudy SCT100 74 69     83%   75 30.01        
Sep 16 22:37 Calm 10 Clear CLR 74 69     83%   75 30.01        
Sep 16 22:16 Calm 10 Clear CLR 74 69     83%   75 30.02        
Sep 16 21:57 Calm 10 Clear CLR 74 69     84%   75 30.03        
Sep 16 21:37 Calm 10 Partly Cloudy SCT090 75 69     82%   76 30.03        
Sep 16 21:16 Calm 10 Partly Cloudy SCT100 75 69     82%   76 30.03        
Sep 16 20:57 Calm 10 Partly Cloudy SCT110 75 69     81%   76 30.03        
Sep 16 20:37 Calm 10 Clear CLR 76 69     79%   77 30.02        
Sep 16 20:16 Calm 10 Clear CLR 76 69     79%   77 30.03        
Sep 16 19:57 ENE 3 10 Clear CLR 76 69     78%   77 30.03        
Sep 16 19:36 ENE 3 10 Partly Cloudy SCT090 77 69     76%   78 30.03        
Sep 16 19:16 ENE 3 10 Clear CLR 78 69     73%   79 30.03        
Sep 16 18:57 ENE 5 10 Clear CLR 79 69     71%   80 30.03        
Sep 16 18:36 E 5 10 Clear CLR 79 68     69%   82 30.03        
Sep 16 18:16 ESE 7 10 Partly Cloudy SCT038 80 68     67%   83 30.03        
Sep 16 17:57 E 8 10 Partly Cloudy SCT036 81 69     65%   85 30.03        
Sep 16 17:36 E 7 10 Clear CLR 82 68     62%   85 30.03        
Sep 16 17:16 ESE 6 10 Clear CLR 82 68     63%   85 30.03        
Sep 16 16:57 E 5 10 Clear CLR 82 67     62%   85 30.03        
Sep 16 16:36 E 8 10 Clear CLR 82 67     61%   84 30.03        
Sep 16 16:16 ESE 9 10 Clear CLR 82 67     61%   85 30.04        
Sep 16 15:57 ESE 7 10 Clear CLR 83 67     58%   85 30.04        
Sep 16 15:36 E 9 10 Partly Cloudy SCT038 83 67     57%   86 30.04        
Sep 16 15:16 E 8 10 Partly Cloudy SCT036 84 68     58%   87 30.05        
Sep 16 14:57 E 10 10 Partly Cloudy SCT038 83 68     60%   86 30.06        
Sep 16 14:36 E 8 10 Clear CLR 84 68     58%   87 30.06        
Sep 16 14:16 ESE 9 10 Clear CLR 83 67     58%   86 30.08        
Sep 16 13:57 E 8 10 Clear CLR 83 67     58%   85 30.08        
Sep 16 13:36 E 9 10 Clear CLR 83 67     59%   85 30.09        
Sep 16 13:16 ESE 10 10 Clear CLR 81 68     63%   84 30.09        
Sep 16 12:57 E 7 10 Clear CLR 81 67     62%   83 30.1        
Sep 16 12:36 E 7 10 Clear CLR 79 68     68%   82 30.1        
Sep 16 12:16 E 9 10 Clear CLR 79 69     70%   82 30.11        
Sep 16 11:57 E 7 10 Clear CLR 78 68     71%   79 30.12        
Sep 16 11:36 ESE 9 10 Clear CLR 78 68     71%   79 30.12        
Sep 16 11:16 E 8 10 Clear CLR 79 68     71%   80 30.11        
Sep 16 10:57 ENE 8 10 Clear CLR 78 68     73%   79 30.11        
Sep 16 10:36 E 7 10 Clear CLR 77 69     77%   78 30.12        
Sep 16 10:17 E 8 10 Clear CLR 76 69     78%   77 30.12        
Sep 16 09:57 ENE 8 10 Clear CLR 75 69     81%   76 30.11        
Sep 16 09:36 ENE 5 10 Clear CLR 73 69     87%   74          
Sep 16 09:17 ENE 6 10 Clear CLR 71 68     90%   72          
Sep 16 08:57 ENE 5 10 Clear CLR 70 68     93%              
Sep 16 08:36 Calm 10 Clear CLR 69 67     95%              
Sep 16 08:17 Calm 10 Clear CLR 69 68     96%              
Sep 16 07:57 NE 5 10 Clear CLR 69 68     97%     30.1        
Sep 16 07:36 NE 3 10 Clear CLR 68 67     97%              
Sep 16 07:17 Calm 10 Clear CLR 67 67     98%     30.09        
Sep 16 06:57 Calm 10 Clear CLR 68 67     97%              
Sep 16 06:36 Calm 10 Clear CLR 68 67     98%              
Sep 16 06:17 NNE 3 10 Clear CLR 68 67     97%              
Sep 16 05:57 Calm 10 Clear CLR 69 68     97%     30.09        
Sep 16 05:36 Calm 10 Clear CLR 68 68     98%     30.09        
Sep 16 05:17 NNE 3 10 Clear CLR 69 68     97%     30.09        
Sep 16 04:56 ENE 3 10 Clear CLR 69 68     96%     30.09        
Sep 16 04:37 Calm 10 Clear CLR 69 68     96%     30.09        
Sep 16 04:17 NNE 3 10 Clear CLR 69 68     96%     30.09        
Sep 16 03:56 Calm 10 Clear CLR 70 68     96%     30.09        
Sep 16 03:37 Calm 10 Clear CLR 70 68     94%     30.09        
Sep 16 03:17 Calm 10 Clear CLR 70 69     94%   71 30.09        
Sep 16 02:56 Calm 10 Clear CLR 71 69     94%   72 30.09        
Sep 16 02:37 Calm 10 Clear CLR 71 69     92%   72 30.09        
Sep 16 02:17 Calm 10 Clear CLR 72 69     91%   73 30.09        
Sep 16 01:56 Calm 10 Clear CLR 72 69     91%   73 30.09        
Sep 16 01:37 Calm 10 Clear CLR 72 69     90%   73 30.09        
Sep 16 01:17 Calm 10 Clear CLR 72 69     90%   73 30.09        
Sep 16 00:56 Calm 10 Clear CLR 73 69     89%   74 30.1        
Sep 16 00:37 Calm 10 Clear CLR 73 69     88%   74 30.1        
Sep 16 00:16 Calm 10 Clear CLR 73 69     89%   74 30.1        
Sep 15 23:56 Calm 10 Clear CLR 73 69     87%   75 30.1        
Sep 15 23:37 Calm 10 Clear CLR 74 69     86%   75 30.1        
Sep 15 23:16 Calm 10 Clear CLR 74 70     86%   75 30.1        
Sep 15 22:56 Calm 10 Clear CLR 75 70     85%   76 30.09        
Sep 15 22:37 Calm 10 Clear CLR 75 70     83%   76 30.09        
Sep 15 22:16 Calm 10 Clear CLR 75 70     83%   76 30.1        
Sep 15 21:56 Calm 10 Clear CLR 75 70     83%   77 30.1        
Sep 15 21:37 Calm 10 Clear CLR 76 70     81%   77 30.09        
Sep 15 21:16 Calm 10 Clear CLR 77 70     79%   78 30.09        
Sep 15 20:56 Calm 10 Clear CLR 78 70     76%   79 30.09        
Sep 15 20:37 Calm 10 Clear CLR 78 70     77%   79 30.08        
Sep 15 20:16 Calm 10 Clear CLR 79 70     74%   82 30.08        
Sep 15 19:56 Calm 10 Clear CLR 80 70     71%   84 30.08        
Sep 15 19:37 ESE 3 10 Clear CLR 82 70     66%   86 30.08        
Sep 15 19:16 E 3 10 Clear CLR 83 70     64%   88 30.08        
Sep 15 18:56 ESE 5 10 Clear CLR 85 70     61%   89 30.08        
Sep 15 18:37 E 5 10 Clear CLR 86 69     57%   89 30.08        
Sep 15 18:16 E 8 10 Clear CLR 87 69     56%   91          
Sep 15 17:56 E 5 10 Partly Cloudy SCT047 SCT055 SCT070 86 69     58%   90          
Sep 15 17:37 ENE 5 10 Mostly Cloudy BKN047 BKN055 BKN070 86 69     57%   90 30.07        
Sep 15 17:16 E 7 10 Partly Cloudy SCT047 88 69     54%   92 30.07        
Sep 15 16:56 E 6 10 Partly Cloudy SCT047 87 69     56%   91 30.07        
Sep 15 16:37 NE 6 10 Partly Cloudy SCT045 89 70     53%   94 30.07        
Sep 15 16:16 ENE 7 10 Partly Cloudy SCT047 SCT055 88 70     55%   92 30.08        
Sep 15 15:57 ENE 5 10 Mostly Cloudy BKN047 BKN055 87 69     55%   92 30.08        
Sep 15 15:37 NE 9 10 Partly Cloudy SCT045 SCT055 88 69     54%   93 30.08        
Sep 15 15:16 E 5 10 Partly Cloudy SCT041 SCT047 SCT070 87 70     57%   92 30.09        
Sep 15 14:56 ENE 5 10 Mostly Cloudy BKN045 BKN070 86 69     58%   90 30.09        
Sep 15 14:37 ENE 8 10 Partly Cloudy SCT041 SCT049 87 70     57%   92 30.1        
Sep 15 14:16 NNE 9 10 Mostly Cloudy BKN039 BKN049 87 70     58%   91 30.1        
Sep 15 13:57 ENE 8 10 Partly Cloudy SCT037 86 69     58%   90 30.11        
Sep 15 13:37 NNE 7 10 Partly Cloudy SCT035 84 70     62%   89 30.11        
Sep 15 13:16 E 5 10 Clear CLR 86 70     59%   90 30.12        
Sep 15 12:57 NE 7 10 Partly Cloudy SCT032 85 70     61%   89 30.12        
Sep 15 12:36 NNE 8 10 Partly Cloudy SCT029 85 71     64%   90 30.12        
Sep 15 12:16 ENE 3 10 Partly Cloudy SCT027 83 71     68%   88 30.12        
Sep 15 11:57 ENE 6 10 Partly Cloudy SCT022 81 71     72%   86 30.13        
Sep 15 11:36 Calm 10 Clear CLR 81 72     72%   86 30.13        
Sep 15 11:16 E 3 10 Clear CLR 80 72     76%   84 30.14        
Sep 15 10:57 N 5 10 Clear CLR 79 72     79%   82 30.14        
Sep 15 10:36 NNE 5 10 Clear CLR 78 71     81%   79          
Sep 15 10:16 Calm 10 Partly Cloudy SCT010 76 71     83%   78          
Sep 15 09:57 E 3 10 Partly Cloudy SCT010 76 71     85%   77          
Sep 15 09:36 Calm 10 Partly Cloudy SCT008 74 71     89%   76 30.12        
Sep 15 09:17 Calm 10 Clear CLR 73 71     92%   74 30.12        
Sep 15 08:56 ENE 3 7 Clear CLR 72 70     95%   73 30.12        
Sep 15 08:36 NE 3 5 Fog/Mist SCT004 71 70     97%   72          
Sep 15 08:17 Calm 3 Fog/Mist SCT004 70 70     100%     30.11        
Sep 15 07:56 Calm 1.5 Fog/Mist VV007 69 69     100%     30.1        
Sep 15 07:37 Calm 2 Fog/Mist CLR 69 69     100%              
Sep 15 07:16 Calm 3 Fog/Mist CLR 69 69     100%     30.09        
Sep 15 06:56 NNE 3 3 Fog/Mist CLR 69 69     100%     30.09        
Sep 15 06:37 N 3 4 Fog/Mist CLR 69 69     99%     30.09        
Sep 15 06:16 Calm 4 Fog/Mist SCT004 69 69     100%     30.09        
Sep 15 05:56 Calm 4 Fog/Mist SCT005 70 69     99%     30.09        
Sep 15 05:37 NNE 3 4 Fog/Mist SCT005 70 70     100%     30.09        
Sep 15 05:16 N 3 5 Fog/Mist SCT005 71 70     98%   72 30.09        
Sep 15 04:56 Calm 7 Clear CLR 71 70     97%   72 30.09        
Sep 15 04:37 Calm 7 Clear CLR 71 70     98%   72 30.09        
Sep 15 04:16 NNE 3 7 Clear CLR 71 70     97%   73 30.09        
Sep 15 03:57 N 3 10 Clear CLR 72 71     96%   73 30.09        
Sep 15 03:37 Calm 10 Clear CLR 72 70     96%   73 30.09        
Sep 15 03:16 Calm 10 Partly Cloudy SCT050 72 71     95%   74 30.09        
May 15 12:56 SW 9 10 Clear CLR 85 60     44%   85 29.97        
May 15 09:56 W 6 10 Clear CLR 78 60     53%   78          
May 15 09:37 WSW 6 10 Clear CLR 78 60     55%   78 29.94        
May 15 09:16 WSW 8 10 Clear CLR 77 60     56%   77 29.94        
May 15 07:16 WSW 6 10 Clear CLR 71 64     80%   72          
May 15 05:57 SW 6 10 Partly Cloudy SCT090 72 64     75%   73          
May 15 02:57 SW 6 10 Clear CLR 74 63     69%   74          
May 15 01:57 SSW 3 10 Clear CLR 74 63     67%   75 29.9        
May 15 01:16 SSW 3 10 Clear CLR 75 62     65%   75          
May 14 15:56 NE 5 10 Partly Cloudy SCT060 85 65     52%   87          
May 14 11:56 WNW 11 10 Clear CLR 85 64     50%   86          
May 14 09:37 WSW 7 10 Clear CLR 79 65     63%   79          
May 14 06:57 SW 5 10 Clear CLR 69 63     81%              
May 14 06:36 SW 5 10 Clear   69 63     81%     30        
May 13 17:17 SW 14 10 Mostly Cloudy SCT050 BKN070 BKN085 86 63     47%   87 29.98        
May 13 16:37 WSW 13 10 Partly Cloudy SCT050 SCT065 SCT085 87 63     46%   88 29.98        
May 13 11:37   10 Partly Cloudy SCT047 82 63     53%   83 30.04        
May 13 05:57 SW 5 10 Clear CLR 67 62     83%     30.03        
May 13 04:36 Calm 10 Clear CLR 66 62     88%              
May 13 00:57 SSW 5 10 Clear CLR 73 63     71%   73          
May 12 20:17 Calm 10 Clear CLR 80 61     54%   80          
May 12 19:56 S 5 10 Clear CLR 80 61     53%   81 30        
May 12 13:17   10 Partly Cloudy SCT047 83 61     48%   83 30.05        
May 12 09:17 WSW 13 10 Clear CLR 75 60     59%   75          
Notice The following observation data may not be complete
May 12 07:37   10 Clear CLR          %              
May 12 02:17 SW 3 10 Clear CLR 71 59     68%   70          
May 12 00:56 Calm 10 Clear CLR 73 59     60%   73 30.01        
May 11 21:56 Calm 5 Haze CLR 76 58     53%   76          
May 11 20:17 SSW 5 10 Clear CLR 80 56     45%   79          
May 11 19:56 SW 5 10 Clear CLR 81 56     43%   81 29.95        
May 11 17:56 SW 10 10 Clear CLR 85 55     37%   84 29.95        
May 11 17:37   10 Clear CLR 85 56     37%   83 29.94        
May 11 16:37 SW 15 10 Partly Cloudy SCT065 84 55     37%   83 29.97        
May 11 14:17   10 Partly Cloudy SCT055 84 55     38%   83 30        
May 11 12:37 WSW 10 10 Clear CLR 79 63     57%   80          
May 11 12:17 SSW 7 10 Clear CLR 78 62     58%   79 30.04        
May 11 08:17 Calm 10 Clear CLR 63 56     77%              
Notice The following observation data may not be complete
Jun 12 07:36   10 Clear CLR          %              
Jun 12 07:16 SW 3 10 Clear CLR 72 63     72%   73          
Jun 12 03:36 Calm 10 Mostly Cloudy BKN055 71 61     71%   71          
Jun 11 22:56 S 3 10 Clear CLR 76 60     58%   76          
Jun 11 22:16 S 3 10 Clear CLR 77 60     56%   77 30.08        
Jun 11 18:36 SSW 8 10 Partly Cloudy SCT065 85 57     39%   84 30.1        
Jun 11 09:36 SW 9 10 Partly Cloudy SCT055 77 61     58%   77          
Jun 11 07:16 SSW 3 10 Clear CLR 67 60     77%              
Jun 10 23:56 Calm 10 Clear CLR 71 59     64%   71          
Jun 10 21:36 SSW 5 10 Clear CLR 76 58     53%   76          
Jun 10 18:56 SSW 9 10 Clear CLR 83 55     38%   82 30.01        
Jun 10 09:55 SW 6 10 Clear CLR 73 57     57%   73          
Jun 10 03:16 SW 6 10 Clear CLR 65 54     68%              
Notice The following observation data may not be complete
Jun 09 21:36   10 Clear CLR          %              
Jun 09 19:56 SW 8 10 Clear CLR 78 50     36%   78 29.92        
Jun 09 17:16 SW 8 10 Clear   81 48     32%   80 29.92        
Notice The following observation data may not be complete
Jun 09 15:16   10 Clear CLR          %              
Jun 09 13:36 SW 9 10 Clear CLR 78 50     37%   78 29.97        
Notice The following observation data may not be complete
Jun 09 05:36   10 Clear CLR          %              
Notice The following observation data may not be complete
Jun 09 04:36   10 Clear CLR          %              
Jun 09 00:36 Calm 10 Clear CLR 57 53     84%     29.92        
Jun 08 23:15 Calm 10 Clear CLR 63 53     71%     29.92        
Jun 08 20:15 WNW 5 10 Clear CLR 72 49     43%   71 29.9        
Jun 08 08:35 NNE 7 10 Clear CLR 57 52     84%              
Jun 08 03:35 Calm 10 Clear CLR 51 49     93%              
Jun 08 00:16 Calm 10 Clear CLR 55 50     83%     30.04        
Jun 07 16:55 NNE 10 10 Cloudy SCT041 SCT049 OVC060 64 49     59%     30.03        
Jun 07 12:36 NE 7 10 Cloudy BKN047 OVC050 63 51     64%              
Jun 07 10:15 NE 9 10 Cloudy SCT023 BKN036 OVC046 64 52     64%              
Jun 07 09:36 ENE 8 10 Cloudy SCT020 BKN026 OVC034 63 53     70%              
Jun 06 10:35 NNE 8 10 Clear CLR 66 52     61%     29.96        
Jun 06 08:35 NE 5 10 Clear CLR 61 54     78%     29.95        
Jun 06 04:15 NE 5 10 Clear CLR 58 54     84%              
Jun 06 02:35 NE 3 10 Clear CLR 60 55     84%              
Jun 06 00:55 NE 8 10 Clear CLR 64 59     83%              
Jun 05 23:55 NE 5 10 Partly Cloudy SCT080 SCT095 SCT110 66 62     87%              
Jun 05 21:55 Calm 10 Mostly Cloudy SCT075 BKN090 68 64     88%              
Notice The following observation data may not be complete
Jun 05 21:35   10 Mostly Cloudy SCT065 BKN100 BKN120          %              
Jun 05 20:16 NE 3 10 Partly Cloudy SCT017 SCT026 SCT085 70 65     86%     29.77